This is the latest recevied weather packets stored in our database for station/object MIDVIL-WX. If no packets are shown the sender has not sent any weather packets the latest 10 day(s).
| Time | Temp. | Humidity | Pressure | Rain* | Wind** | Luminosity | Snow |
|---|---|---|---|---|---|---|---|
| 1777617045 | 4.44° C | 85% | 987.6 hPa | 0 mm | - | - | - |
| 1777616125 | 4.44° C | 85% | 987.6 hPa | 0 mm | - | - | - |
| 1777615255 | 5° C | 85% | 987.6 hPa | 0 mm | - | - | - |
| 1777614325 | 5° C | 81% | 989.1 hPa | 0 mm | - | - | - |
| 1777613443 | 5° C | 79% | 988.4 hPa | 0 mm | - | - | - |
| 1777612528 | 5° C | 79% | 988.4 hPa | 0 mm | - | - | - |
| 1777611652 | 5° C | 79% | 988.4 hPa | 0 mm | - | - | - |
| 1777610725 | 5° C | 75% | 989.6 hPa | 0 mm | - | - | - |
| 1777609844 | 5° C | 73% | 988.7 hPa | 0 mm | - | - | - |
| 1777608926 | 5° C | 73% | 988.7 hPa | 0 mm | - | - | - |
| 1777608053 | 5° C | 73% | 988.7 hPa | 0 mm | - | - | - |
| 1777607126 | 5° C | 67% | 988.7 hPa | 0 mm | - | - | - |
| 1777606241 | 5° C | 71% | 988.2 hPa | 0 mm | - | - | - |
| 1777605326 | 5.56° C | 71% | 988.3 hPa | 0 mm | - | - | - |
| 1777604448 | 6.11° C | 71% | 988.3 hPa | 0 mm | - | - | - |
| 1777603525 | 6.11° C | 69% | 988.5 hPa | 0 mm | - | - | - |
| 1777602638 | 6.11° C | 72% | 988.8 hPa | 0 mm | - | - | - |
| 1777601725 | 6.11° C | 72% | 988.8 hPa | 0 mm | - | - | - |
| 1777600845 | 6.11° C | 72% | 988.8 hPa | 0 mm | - | - | - |
| 1777599926 | 6.11° C | 64% | 989.1 hPa | 0 mm | - | - | - |
| 1777599039 | 6.11° C | 64% | 989.1 hPa | 0 mm | - | - | - |
| 1777598126 | 6.67° C | 64% | 989.1 hPa | 0 mm | - | - | - |
| 1777597244 | 6.67° C | 64% | 989.1 hPa | 0 mm | - | - | - |
| 1777596325 | 7.22° C | 55% | 988.4 hPa | 0 mm | - | - | - |
| 1777595438 | 7.22° C | 54% | 989.6 hPa | 0 mm | - | - | - |
* Rain latest hour (hover to see other rain measurements)
** Current wind speed in m/s (hover to see current wind gust speed)